Wenatchee, WA
on Monday, December 31, 2012

Monday
Previous Day Next Day
Daily Summary
 ActualAverageRecord
Temperature
Mean Temperature °F 27°F  
Max Temperature 27°F 31°F 49°F (1998)
Min Temperature 20°F 23°F -13°F (1968)
Degree Days
Heating Degree Days 41 38  
Month to date heating degree days 1008 1145  
Since 1 July heating degree days 2167 2520  
Cooling Degree Days 0 0  
Month to date cooling degree days 0 0  
Year to date cooling degree days 888 790  
Moisture
Dew Point 20°F   
Average Humidity 82    
Maximum Humidity 92    
Minimum Humidity 71    
Precipitation
Precipitation 0.00 in 0.04 in 0.75 in (1996)
Month to date precipitation 1.71 1.40  
Year to date precipitation 9.22 8.01  
Wind
Wind Speed 2 mph   
Max Wind Speed 9 mph   
Max Gust Speed 10 mph   
Visibility 9 miles   
Events     

Key: T is trace of precipitation, MM is missing value
Source: NWS Daily Summary
Time(PST)TemperatureDew PointHumidity Pressure Visibility Wind DirectionWind SpeedGust SpeedPrecipitationEvents Conditions
12:04 AM 24.8°F 21.2°F 86% 30.31 in 6.0 miles East 4.6 mph - N/A   Overcast
12:11 AM 24.8°F 21.2°F 86% 30.31 in 7.0 miles East 3.5 mph - N/A   Overcast
12:55 AM 24.1°F 21.9°F 91% 30.37 in 9.0 miles Calm Calm - N/A   Overcast
1:55 AM 24.1°F 21.0°F 88% 30.38 in 10.0 miles East 5.8 mph - N/A   Overcast
2:55 AM 24.1°F 19.9°F 84% 30.38 in 10.0 miles Calm Calm - N/A   Overcast
3:55 AM 24.1°F 19.9°F 84% 30.38 in 10.0 miles ENE 4.6 mph - N/A   Overcast
4:55 AM 24.1°F 19.9°F 84% 30.37 in 10.0 miles ESE 3.5 mph - N/A   Overcast
5:55 AM 24.1°F 21.0°F 88% 30.37 in 5.0 miles Calm Calm - N/A   Overcast
6:16 AM 24.8°F 21.2°F 86% 30.32 in 5.0 miles Calm Calm - N/A   Overcast
6:25 AM 24.8°F 21.2°F 86% 30.32 in 5.0 miles Calm Calm - N/A   Overcast
6:55 AM 24.1°F 21.9°F 91% 30.37 in 6.0 miles Calm Calm - N/A   Overcast
7:55 AM 25.0°F 21.9°F 88% 30.38 in 4.0 miles Calm Calm - N/A   Overcast
8:55 AM 24.1°F 21.9°F 91% 30.38 in 4.0 miles Calm Calm - N/A   Overcast
9:55 AM 25.0°F 23.0°F 92% 30.40 in 5.0 miles Calm Calm - N/A   Overcast
10:55 AM 25.0°F 21.9°F 88% 30.40 in 10.0 miles Calm Calm - N/A   Overcast
11:46 AM 26.6°F 21.2°F 80% 30.34 in 10.0 miles Calm Calm - N/A   Mostly Cloudy
11:55 AM 26.1°F 21.9°F 84% 30.40 in 10.0 miles Calm Calm - N/A   Overcast
12:39 PM 26.6°F 23.0°F 86% 30.35 in 10.0 miles West 3.5 mph - N/A   Overcast
12:55 PM 27.0°F 21.9°F 81% 30.40 in 10.0 miles WNW 3.5 mph - N/A   Overcast
1:14 PM 26.6°F 21.2°F 80% 30.35 in 10.0 miles West 4.6 mph - N/A   Overcast
1:30 PM 26.6°F 21.2°F 80% 30.36 in 10.0 miles West 4.6 mph - N/A   Overcast
1:55 PM 27.0°F 21.0°F 78% 30.41 in 10.0 miles West 5.8 mph - N/A   Overcast
2:55 PM 27.0°F 19.9°F 75% 30.43 in 10.0 miles West 4.6 mph - N/A   Overcast
4:55 PM 26.1°F 19.0°F 75% 30.45 in 10.0 miles West 3.5 mph - N/A   Mostly Cloudy
5:05 PM 24.8°F 19.4°F 80% 30.40 in 10.0 miles WNW 3.5 mph - N/A   Scattered Clouds
5:25 PM 24.8°F 19.4°F 80% 30.41 in 10.0 miles Calm Calm - N/A   Mostly Cloudy
5:55 PM 24.1°F 17.1°F 75% 30.46 in 10.0 miles NNW 4.6 mph - N/A   Overcast
6:55 PM 23.0°F 16.0°F 74% 30.46 in 10.0 miles North 3.5 mph - N/A   Scattered Clouds
7:53 PM 21.2°F 15.8°F 80% 30.43 in 10.0 miles NNW 4.6 mph - N/A   Mostly Cloudy
7:55 PM 21.0°F 14.0°F 74% 30.49 in 10.0 miles NNW 4.6 mph - N/A   Mostly Cloudy
8:55 PM 23.0°F 16.0°F 74% 30.51 in 10.0 miles NW 3.5 mph - N/A   Overcast
9:55 PM 23.0°F 16.0°F 74% 30.52 in 10.0 miles Calm Calm - N/A   Overcast
10:55 PM 24.1°F 18.0°F 77% 30.54 in 10.0 miles West 5.8 mph - N/A   Overcast
11:55 PM 24.1°F 19.0°F 81% 30.54 in 10.0 miles Calm Calm - N/A   Overcast
Moon Phase
Dec. 31 Jan. 04 Jan. 11 Jan. 18 Jan. 26
Sunrise:07:48 AM (PST) Moon Rise:08:11 PM (PST)
Sunset:04:20 PM (PST) Moon Set:09:18 AM (PST)

Copyright © 2014 The Weather Underground, Inc.